Location: Riverside Cemetery
(38.3047°N, 99.7773°W)
Time: 01:37:13
(UTC+00:00)

Cosmos 44 Rocket - Pass Details

Date: 19 September 2020
Orbit: 644 x 745 km, 65.1° (Epoch: 23 October)

Event Time Altitude Azimuth Distance (km) Brightness Sun altitude
Exits shadow 11:06:51 - 191° (S) 2,848 6.2 -15.9°
Reaches altitude 10° 11:08:56 10° 185° (S) 2,051 5.5 -15.5°
Maximum altitude 11:13:19 43° 114° (ESE) 936 4.4 -14.7°
Drops below altitude 10° 11:17:49 10° 44° (NE) 2,112 6.7 -13.8°
Sets 11:20:16 0° 38° (NE) 3,048 7.5 -13.4°
